TimeCST,TemperatureF,Dew PointF,Humidity,Sea Level PressureIn,VisibilityMPH,Wind Direction,Wind SpeedMPH,Gust SpeedMPH,PrecipitationIn,Events,Conditions,WindDirDegrees,DateUTC
12:53 AM,52.0,19.9,28,30.22,10.0,ENE,6.9,-,N/A,,Clear,70,2013-03-09 06:53:00
1:53 AM,51.1,21.0,31,30.22,10.0,ENE,3.5,-,N/A,,Clear,60,2013-03-09 07:53:00
2:53 AM,50.0,21.2,32,30.21,10.0,East,4.6,-,N/A,,Clear,90,2013-03-09 08:53:00
3:53 AM,48.9,21.9,35,30.22,10.0,ENE,8.1,-,N/A,,Clear,60,2013-03-09 09:53:00
4:53 AM,46.9,23.0,39,30.23,10.0,NE,3.5,-,N/A,,Clear,40,2013-03-09 10:53:00
5:53 AM,46.0,24.1,42,30.24,10.0,Calm,Calm,-,N/A,,Clear,0,2013-03-09 11:53:00
6:53 AM,46.9,23.0,39,30.25,10.0,East,5.8,-,N/A,,Clear,80,2013-03-09 12:53:00
7:53 AM,51.1,23.0,33,30.27,10.0,Variable,3.5,-,N/A,,Clear,0,2013-03-09 13:53:00
8:53 AM,55.9,25.0,30,30.26,10.0,ESE,9.2,-,N/A,,Clear,120,2013-03-09 14:53:00
9:53 AM,60.1,28.9,31,30.24,10.0,SSE,10.4,-,N/A,,Clear,150,2013-03-09 15:53:00
10:53 AM,62.1,30.0,30,30.25,10.0,Variable,6.9,16.1,N/A,,Clear,0,2013-03-09 16:53:00
11:53 AM,63.0,32.0,31,30.23,10.0,South,5.8,-,N/A,,Clear,170,2013-03-09 17:53:00
12:53 PM,64.9,30.9,28,30.20,10.0,South,6.9,-,N/A,,Clear,170,2013-03-09 18:53:00
1:53 PM,66.9,30.9,26,30.18,10.0,SE,9.2,-,N/A,,Clear,140,2013-03-09 19:53:00
2:53 PM,68.0,30.9,25,30.16,10.0,SE,11.5,-,N/A,,Clear,130,2013-03-09 20:53:00
3:53 PM,68.0,30.9,25,30.15,10.0,SSE,9.2,18.4,N/A,,Clear,150,2013-03-09 21:53:00
4:53 PM,68.0,30.9,25,30.14,10.0,SE,8.1,-,N/A,,Clear,130,2013-03-09 22:53:00
5:53 PM,66.0,32.0,28,30.14,10.0,SE,4.6,-,N/A,,Clear,130,2013-03-09 23:53:00
6:53 PM,63.0,33.1,33,30.14,10.0,ESE,5.8,-,N/A,,Clear,110,2013-03-10 00:53:00
7:53 PM,63.0,32.0,31,30.12,10.0,ESE,5.8,-,N/A,,Clear,110,2013-03-10 01:53:00
8:53 PM,63.0,30.9,30,30.12,10.0,SE,5.8,-,N/A,,Clear,140,2013-03-10 02:53:00
9:53 PM,63.0,28.9,28,30.10,10.0,SE,13.8,23.0,N/A,,Clear,140,2013-03-10 03:53:00
10:53 PM,62.1,28.9,29,30.11,10.0,SSE,9.2,-,N/A,,Clear,150,2013-03-10 04:53:00
11:53 PM,61.0,30.0,31,30.10,10.0,ESE,6.9,16.1,N/A,,Clear,120,2013-03-10 05:53:00